YZ-1S DEB, 43644

Orbit data source: Space-Track

YZ-1S DEB, 43644 is space debris in SSO originally from a launch on Tue, 09 Oct 2018 UTC launched from the Jiuquan Satellite Launch Center, China (JSC). Debris objects in space refer to the collection of defunct objects orbiting the Earth. Examples of debris include non-operational satellites, rocket bodies, and fragments generated from explosions, collisions, or faulty payload assembly.

Loading next visibility...
YZ-1S DEB details
Identifier
43644, 2018-077C
Orbit
SSO
Last TLE update8 hours ago
Origin
Flag of CNCASC (CN / PRC)
ManufacturerCALT
MissionSpacecraft
Bus & MotorUnknown
Mass~200 kg wet, ~200 kg dry
Launch date (UTC)
2018-10-09 (6 years ago)
Launch vehicleUnknown
Launch site
Jiuquan Satellite Launch Center, China (JSC)
Object type
Payload
Rocket body
Debris
Shape & HBRCyl + Cone, 3 m
Radar Cross Section8.247 m², Large (>1 m²)

Expand to show TLE details & history

TLE from 8 hours ago
0 YZ-1S DEB
1 43644U 18077C   24361.23536835  .00006717  00000-0  11735-2 0  9995
2 43644  97.9899  45.3086 0007009 349.4302  10.6755 14.68213427331572
Epoch: 2024-12-26T05:38Z
Definitive object data (Epoch: 2024-12-26T05:38:55.825Z)
Latitude
Longitude-134.64168°
Altitude664.927 km
Speed7.527 km/s
True Right ascension03h 01m 14s
True Declination0° 00' 00"
Sunlit
Object was in full shadow at TLE epoch
Visualization TLE readout
Latitude7.99696°
Longitude-135.43127°
Altitude664.435 km
Speed7.528 km/s
Apparent Right ascension02h 15m 06s
Apparent Declination-14° 58' 43"
Sunlit
Object is in full shadow
Visualization observer readout
Local Sidereal Time13:13:32
Azimuth327.305° NNW
Elevation-61.667°
Doppler factor1
Orbital elements
Apogee altitude668.774 km
Perigee altitude658.902 km
Semi-major axis7,041.975 km
Eccentricity0.0007009
Inclination97.9899°
RAAN45.3086°
Arg. of periapsis349.4302°
True anomaly10.69039°
Mean anomaly10.6755°
Eccentric anomaly10.68294°
Mean motion3.67284 °/min
BSTAR0.0011735
Orbital period98.02 mins
Loading maneuver chart data...
Loading historical data...
Loading historical data...
Loading historical data...
Loading historical data...
Loading historical data...
Loading historical data...
Loading historical data...
Other satellites on launch #77 in the year 2018 (2018-10-09 UTC)

YZ-1S DEB Visibility forecast

Observer location: undefined°, undefined

Span
Click to sort rows by Start time (UTC) header in descending order
Start Az.
Max El. time (UTC)
Max El. Az.
Max El.
End time (UTC)
End Az.
8 mins2024-12-26 16:01:48.043Z13.728° NNE2024-12-26 16:05:48.043Z105.559° ESE44.936°2024-12-26 16:09:48.043Z192.243° SSW
7 mins2024-12-27 03:02:48.043Z157.144° SSE2024-12-27 03:05:48.043Z72.019° E43.887°2024-12-27 03:09:48.043Z351.783° N
|